Regional Weather Roundup
Issued by NWS

Home | Current Version | Previous Version | Text Only | Print | Product List | Glossary Off
Versions: 1 2 3 4 5 6 7 8 9 10 11 12 13 14 15 16 17 18 19 20 21 22 23 24 25 26 27 28 29 30 31 32 33 34 35 36 37 38 39 40 41 42 43 44 45 46 47 48 49 50

000
ASUS45 KTFX 250310
RWRMT
MONTANA REGIONAL WEATHER ROUNDUP
NATIONAL WEATHER SERVICE GREAT FALLS MT
900 PM MDT SUN MAY 24 2015

NOTE: "FAIR" INDICATES FEW OR NO CLOUDS BELOW 12000 FEET WITH NO
SIGNIFICANT WEATHER AND/OR OBSTRUCTIONS TO VISIBILITY.

MTZ001>007-043-250400-
WEST OF THE DIVIDE

CITY           SKY/WX    TMP DP  RH WIND       PRES   REMARKS
KALISPELL      PTCLDY    64  38  38 CALM      29.88S
MISSOULA       PTCLDY    63  37  38 E8        29.92S
BUTTE          CLOUDY    51  41  68 SE10      30.01R
MULLAN PASS    CLOUDY    46  40  79 S7        29.99F
DEER LODGE       N/A     54  41  62 N5        30.02S
EUREKA           N/A     70  34  26 SE7       29.85S
HAMILTON         N/A     61  39  44 N5        29.91S
LIBBY            N/A     68  39  34 S3        29.85R
RONAN            N/A     60  41  49 E2        29.95F
THOMPSON FALLS   N/A     66  47  50 NW7       29.92S
$$

MTZ008-052>055-250400-
SOUTHWEST MONTANA

CITY           SKY/WX    TMP DP  RH WIND       PRES   REMARKS
BOZEMAN        CLOUDY    51  48  89 CALM      29.99R
DILLON         CLEAR     52  39  61 NE9       29.96R
W YELLOWSTONE  LGT RAIN  45  41  87 N3        29.99S
THREE FORKS      N/A     54  26  34 CALM      29.98S
TWIN BRIDGES     N/A     56  37  48 N14       29.95S
$$

MTZ009-010-012-014-046-048-049-054-250400-
EAST SLOPES AND CENTRAL MONTANA

CITY           SKY/WX    TMP DP  RH WIND       PRES   REMARKS
CUT BANK       CLEAR     58  40  51 S6        29.97F
GREAT FALLS    CLEAR     56  45  66 S6        29.96F
MALMSTROM AFB  CLEAR     55  47  74 SE5       29.97S
HELENA         CLOUDY    56  48  74 SW6       29.96F
CONRAD           N/A     60  46  59 E2        30.01F
$$

MTZ011-013-016-021-045-047-050-051-250400-
NORTH CENTRAL MONTANA

CITY           SKY/WX    TMP DP  RH WIND       PRES   REMARKS
HAVRE          MOCLDY    59  47  64 CALM      29.93F
LEWISTOWN      MOCLDY    55  46  71 W3        29.98F
N BAR RANCH    MOCLDY    52  45  76 CALM      30.01S
CHINOOK          N/A     61  46  59 SW3       29.93S
FORT BENTON      N/A     63  43  48 CALM      29.96S
$$

MTZ017>020-022>027-061-062-250400-
NORTHEAST MONTANA

CITY           SKY/WX    TMP DP  RH WIND       PRES   REMARKS
GLASGOW        MOCLDY    64  41  42 SE7       29.90S
JORDAN           N/A     62  47  57 E7        29.92R
SIDNEY         MOCLDY    61  52  72 CALM      29.92S
WOLF POINT     MOCLDY    65  48  54 S5        29.91R
MALTA            N/A     64  44  48 CALM      29.89S
POPLAR           N/A     64  46  52 S6        29.92R
$$

MTZ028>42-056>058-250400-
SOUTHCENTRAL AND SOUTHEAST MONTANA

CITY           SKY/WX    TMP DP  RH WIND       PRES   REMARKS
BAKER          CLOUDY    54  53  97 N5        29.94F
BILLINGS       CLOUDY    55  47  74 NW8       29.95S
LIVINGSTON     CLOUDY    51  45  79 NE12      29.98R
MILES CITY     LGT RAIN  56  50  80 SE7       29.94R
BIG TIMBER       N/A     52  46  82 CALM      30.00S
FORSYTH          N/A     59  52  77 SE6       29.93S
LAUREL           N/A     53  44  71 NW3       29.95S
ROUNDUP          N/A     58  45  62 CALM      29.88S
$$

REGIONAL REPORTS...DAKOTAS

CITY           SKY/WX    TMP DP  RH WIND       PRES   REMARKS
WILLISTON      PTCLDY    64  44  48 SE5       29.91S
MINOT          MOCLDY    60  45  57 NE5       29.90S
DICKINSON      CLOUDY    57  48  72 NE6       29.90S
BEACH          CLOUDY    57  57 100 NW3       29.94S
CROSBY         FAIR      61  45  55 S5        29.92R
WATFORD CITY   FAIR      59  46  63 E5        29.90S
BISMARCK       CLOUDY    62  53  72 E14       29.90R
GRAND FORKS    CLOUDY    63  53  70 CALM      29.88F
FARGO          CLOUDY    65  54  67 SE6       29.87F
BUFFALO SD       N/A     54  51  90 N12       29.84F
RAPID CITY     CLOUDY    54  53  97 N10       29.87S
$$

REGIONAL REPORTS...WYOMING/IDAHO/WASHINGTON

CITY           SKY/WX    TMP DP  RH WIND       PRES   REMARKS
GILLETTE       CLOUDY    50  48  93 N8        29.89F
SHERIDAN       LGT RAIN  51  49  92 N6        29.95R
BUFFALO WY     LGT RAIN  47  45  93 NW6       29.95S
CODY           CLOUDY    48  43  81 NW5       29.97F
YELLOWSTONE LA   N/A     40  37  89 CALM      30.03R
IDAHO FALLS    MOCLDY    57  48  72 SE9       29.89R
SALMON         MOCLDY    57  43  58 N5        29.89R
BOISE          CLEAR     73  40  30 NW8       29.81R
SPOKANE        CLOUDY    72  47  40 S6        29.84R
$$

REGIONAL REPORTS...ALBERTA

CITY           SKY/WX    TMP DP  RH WIND       PRES   REMARKS
EDMONTON       CLEAR     68  36  30 S6        29.87S
CALGARY        PTCLDY    64  32  29 S14       29.92S
LETHBRIDGE     PTCLDY    61  39  44 S9        29.94S
MEDICINE HAT   PTCLDY    66  39  37 S6        29.92S
$$

REGIONAL REPORTS...SASKATCHEWAN

CITY           SKY/WX    TMP DP  RH WIND       PRES   REMARKS
SWIFT CURRENT  MOCLDY    66  32  28 E7        29.93F
REGINA         PTCLDY    68  36  30 S3        29.91S
SASKATOON      PTCLDY    64  37  36 N8        29.92R
$$



USA.gov is the U.S. government's official web portal to all federal, state and local government web resources and services.